(332610) = 2008 TA12

Discovered at Mount Lemmon on 2008-10-01 by Mt. Lemmon Survey.

Orbit

Orbit type: Main Belt

Note: WebGL enabled browser required.

epoch2024-03-31.0
epoch JD2460400.5
perihelion date2022-05-02.93995
perihelion JD2459702.43995
argument of perihelion (°)165.36889
ascending node (°)193.17955
inclination (°)5.32995
eccentricity0.0625276
perihelion distance (AU)2.5784169
Tisserand w.r.t. Jupiter3.3
ΔV w.r.t. Earth (km/sec)10.2
semimajor axis (AU)2.7503923
mean anomaly (°)150.83588
mean daily motion (°/day)0.21607870
aphelion distance (AU)2.922
period (years)4.56
P-vector [x]0.99943008
P-vector [y]-0.03159924
P-vector [z]0.01187417
Q-vector [x]0.02628570
Q-vector [y]0.94920217
Q-vector [z]0.31356705
absolute magnitude16.84
phase slope0.15
uncertainty0
referenceMPEC 2024-E73
observations used225
oppositions14
arc length (days)7530
first opposition used2003
last opposition used2024
residual rms (arc-secs)0.72
perturbers coarse indicatorM-v
perturbers precise indicator003Ek
first observation date used2003-07-24.0
last observation date used2024-03-05.0
computer nameMPCLINUX
JD of orbit computation2456700.414546
perihelion JD uncertainty (days)1.7526E-04
argument of perihelion uncertainty (°)5.6474E-05
ascending node uncertainty (°)4.0844E-05
inclination uncertainty (°)4.4405E-06
eccentricity uncertainty 3.8631E-08
perihelion distance uncertainty (AU)1.0019E-07
Minimum Orbit Intersection Distances (in AU)
for orbit epoch: 2460400.5, reference: E2024-FB1
Mercury2.20313
Venus1.85503
Earth1.57499
Mars1.16669
Jupiter2.35743
Saturn6.2808
Uranus15.526
Neptune27.2014

Observations

227 total observations over interval: 2003 07 24.37600 – 2024 03 05.197369
These data are available for download (format description).

Date (UT) J2000 RA J2000 Dec Magn Location Ref
2003 07 24.37600 21 22 06.31 -07 39 10.3 20.3   644 – Palomar Mountain/NEAT MPS 308716
2003 07 24.39728 21 22 05.42 -07 39 14.6 20.2   644 – Palomar Mountain/NEAT MPS 308716
2003 07 24.41873 21 22 04.47 -07 39 18.6 20.6   644 – Palomar Mountain/NEAT MPS 308716
2006 03 05.21366 11 05 19.12 +01 47 32.5 20.8 V 691 – Steward Observatory, Kitt Peak-Spacewatch MPS 308716
2006 03 05.23097 11 05 18.29 +01 47 39.4 20.9 V 691 – Steward Observatory, Kitt Peak-Spacewatch MPS 308716
2006 03 05.24835 11 05 17.42 +01 47 46.1 21.2 V 691 – Steward Observatory, Kitt Peak-Spacewatch MPS 308716
2008 08 24.40795 00 51 33.49 +07 36 53.8   691 – Steward Observatory, Kitt Peak-Spacewatch MPS 268822
2008 08 24.42552 00 51 33.29 +07 36 51.4   691 – Steward Observatory, Kitt Peak-Spacewatch MPS 268822
2008 08 24.44309 00 51 32.98 +07 36 48.1   691 – Steward Observatory, Kitt Peak-Spacewatch MPS 268822
2008 09 19.39392 00 39 00.36 +05 29 05.8   691 – Steward Observatory, Kitt Peak-Spacewatch MPS 267622
2008 09 19.41148 00 38 59.59 +05 28 58.6   691 – Steward Observatory, Kitt Peak-Spacewatch MPS 267622
2008 09 19.42905 00 38 58.83 +05 28 51.7   691 – Steward Observatory, Kitt Peak-Spacewatch MPS 267622
2008 10 01.29725 00 30 04.64 +04 04 17.7 19.6 V G96 – Mt. Lemmon Survey MPS 259532
2008 10 01.30271 00 30 04.39 +04 04 15.4 19.7 V G96 – Mt. Lemmon Survey MPS 259532
2008 10 01.30819 00 30 04.14 +04 04 12.9 19.6 V G96 – Mt. Lemmon Survey MPS 259532
2008 10 01.31365 00 30 03.85 +04 04 10.6 19.7 V G96 – Mt. Lemmon Survey MPS 259532
2008 10 03.23878 00 28 35.13 +03 50 01.0   291 – LPL/Spacewatch II MPS 259532
2008 10 03.24250 00 28 34.95 +03 49 59.4   291 – LPL/Spacewatch II MPS 259532
2008 10 03.24620 00 28 34.76 +03 49 57.8   291 – LPL/Spacewatch II MPS 259532
2008 10 24.18657 00 14 34.90 +01 29 29.6 20.6 V G96 – Mt. Lemmon Survey MPS 261737
2008 10 24.19314 00 14 34.65 +01 29 27.2 20.6 V G96 – Mt. Lemmon Survey MPS 261737
2008 10 24.19971 00 14 34.47 +01 29 25.1 20.5 V G96 – Mt. Lemmon Survey MPS 261737
2008 10 24.20624 00 14 34.26 +01 29 23.0 19.9 V G96 – Mt. Lemmon Survey MPS 261737
2010 01 12.31980 07 47 36.34 +13 01 12.7 20.4 V G96 – Mt. Lemmon Survey MPS 310296
2010 01 12.32701 07 47 35.95 +13 01 13.9 20.8 V G96 – Mt. Lemmon Survey MPS 310296
2010 01 12.33432 07 47 35.55 +13 01 14.5 20.3 V G96 – Mt. Lemmon Survey MPS 310296
2010 01 12.34882 07 47 34.76 +13 01 17.3 20.3 V G96 – Mt. Lemmon Survey MPS 310296
2011 03 13.39222 13 51 49.82 -10 52 30.4 21.2 V G96 – Mt. Lemmon Survey MPS 374826
2011 03 13.39914 13 51 49.68 -10 52 28.6 21.3 V G96 – Mt. Lemmon Survey MPS 374826
2011 03 13.40609 13 51 49.50 -10 52 26.8 21.1 V G96 – Mt. Lemmon Survey MPS 374826
2011 03 13.41306 13 51 49.35 -10 52 25.3 21.3 V G96 – Mt. Lemmon Survey MPS 374826
2011 04 06.28933 13 37 27.35 -08 47 11.7   691 – Steward Observatory, Kitt Peak-Spacewatch MPS 377230
2011 04 06.30709 13 37 26.52 -08 47 05.4   691 – Steward Observatory, Kitt Peak-Spacewatch MPS 377230
2011 04 06.32488 13 37 25.65 -08 46 58.4   691 – Steward Observatory, Kitt Peak-Spacewatch MPS 377230
2011 04 23.46731 13 23 58.843 -06 58 16.62 20.8 r F51 – Pan-STARRS 1, Haleakala MPS 380087
2011 04 23.47832 13 23 58.326 -06 58 12.67 20.7 i F51 – Pan-STARRS 1, Haleakala MPS 380087
2011 04 23.48910 13 23 57.806 -06 58 08.82 20.7 i F51 – Pan-STARRS 1, Haleakala MPS 380087
2011 04 30.20635 13 19 03.07 -06 18 28.0 21.1 V G96 – Mt. Lemmon Survey MPS 381239
2011 04 30.21505 13 19 02.74 -06 18 25.5 20.7 V G96 – Mt. Lemmon Survey MPS 381239
2011 04 30.22381 13 19 02.35 -06 18 22.1 21.2 V G96 – Mt. Lemmon Survey MPS 381239
2011 04 30.23259 13 19 01.95 -06 18 19.5 20.8 V G96 – Mt. Lemmon Survey MPS 381239
2012 05 28.39354 20 36 26.06 -11 25 52.0 21.3 V G96 – Mt. Lemmon Survey MPS 426012
2012 05 28.39986 20 36 26.17 -11 25 51.0 21.0 V G96 – Mt. Lemmon Survey MPS 426012
2012 05 28.40626 20 36 26.20 -11 25 49.8 21.9 V G96 – Mt. Lemmon Survey MPS 426012
2012 05 28.41267 20 36 26.31 -11 25 48.1 21.3 V G96 – Mt. Lemmon Survey MPS 426012
2012 06 12.37745 20 36 44.74 -10 51 55.8   691 – Steward Observatory, Kitt Peak-Spacewatch MPS 426515
2012 06 12.39521 20 36 44.52 -10 51 54.4   691 – Steward Observatory, Kitt Peak-Spacewatch MPS 426515
2012 06 12.41300 20 36 44.32 -10 51 53.0   691 – Steward Observatory, Kitt Peak-Spacewatch MPS 426515
2012 07 28.37146 20 08 21.250 -11 53 49.14 19.9 i F51 – Pan-STARRS 1, Haleakala MPS 429019
2012 07 28.38246 20 08 20.671 -11 53 51.74 19.8 i F51 – Pan-STARRS 1, Haleakala MPS 429019
2012 07 28.39274 20 08 20.121 -11 53 54.26 20.0 r F51 – Pan-STARRS 1, Haleakala MPS 429019
2012 08 10.33046 19 58 04.223 -12 44 41.62 20.9 g F51 – Pan-STARRS 1, Haleakala MPS 430003
2012 08 10.33464 19 58 04.057 -12 44 42.76 20.8 g F51 – Pan-STARRS 1, Haleakala MPS 430003
2012 08 10.34099 19 58 03.764 -12 44 43.90 21.2 g F51 – Pan-STARRS 1, Haleakala MPS 430003
2012 08 10.34518 19 58 03.590 -12 44 45.17 21.0 g F51 – Pan-STARRS 1, Haleakala MPS 430003
2013 10 31.30007 04 05 21.05 +15 26 45.5 20.6 V 691 – Steward Observatory, Kitt Peak-Spacewatch MPS 485149
2013 10 31.31778 04 05 20.29 +15 26 40.5 20.7 V 691 – Steward Observatory, Kitt Peak-Spacewatch MPS 485149
2013 10 31.33550 04 05 19.53 +15 26 36.0 20.6 V 691 – Steward Observatory, Kitt Peak-Spacewatch MPS 485149
2013 11 03.59556 04 02 56.997 +15 11 50.58 21.1 g F51 – Pan-STARRS 1, Haleakala MPS 487084
2013 11 03.60806 04 02 56.440 +15 11 46.89 21.0 g F51 – Pan-STARRS 1, Haleakala MPS 487084
2013 11 08.25041 03 59 15.50 +14 50 23.9 20.4 V 691 – Steward Observatory, Kitt Peak-Spacewatch MPS 487084
2013 11 08.26811 03 59 14.59 +14 50 19.2 20.6 V 691 – Steward Observatory, Kitt Peak-Spacewatch MPS 487084
2013 11 08.28340 03 59 13.84 +14 50 15.0 20.6 V 691 – Steward Observatory, Kitt Peak-Spacewatch MPS 487084
2013 11 09.51264 03 58 11.982 +14 44 35.36 20.8 w F51 – Pan-STARRS 1, Haleakala MPS 488345
2013 11 09.52771 03 58 11.186 +14 44 31.16 20.4 w F51 – Pan-STARRS 1, Haleakala MPS 488345
2013 11 09.54282 03 58 10.395 +14 44 26.90 20.4 w F51 – Pan-STARRS 1, Haleakala MPS 488345
2013 11 09.54359 03 58 10.366 +14 44 26.53 20.5 w F51 – Pan-STARRS 1, Haleakala MPS 488345
2013 11 09.55797 03 58 09.601 +14 44 22.68 20.6 w F51 – Pan-STARRS 1, Haleakala MPS 488345
2013 11 09.55874 03 58 09.562 +14 44 22.51 20.4 w F51 – Pan-STARRS 1, Haleakala MPS 488345
2013 11 12.25562 03 55 51.07 +14 31 55.7 20.4 V 691 – Steward Observatory, Kitt Peak-Spacewatch MPS 488345
2013 11 12.27333 03 55 50.12 +14 31 50.2 20.0 V 691 – Steward Observatory, Kitt Peak-Spacewatch MPS 488345
2013 11 12.29103 03 55 49.18 +14 31 46.0 20.3 V 691 – Steward Observatory, Kitt Peak-Spacewatch MPS 488345
2013 11 25.43197 03 44 03.222 +13 34 22.90 20.1 r F51 – Pan-STARRS 1, Haleakala MPS 489855
2013 11 25.44148 03 44 02.691 +13 34 20.50 20.2 r F51 – Pan-STARRS 1, Haleakala MPS 489855
2013 11 26.32374 03 43 16.080 +13 30 49.63 20.3 w F51 – Pan-STARRS 1, Haleakala MPS 489855
2013 11 26.33901 03 43 15.240 +13 30 46.10 20.3 w F51 – Pan-STARRS 1, Haleakala MPS 489855
2013 11 26.35433 03 43 14.401 +13 30 42.46 20.4 w F51 – Pan-STARRS 1, Haleakala MPS 489855
2013 11 26.36971 03 43 13.560 +13 30 38.81 20.3 w F51 – Pan-STARRS 1, Haleakala MPS 489855
2013 12 09.90117 03 32 21.85 +12 45 52.4 20.9   J43 – Oukaimeden Observatory, Marrakech MPS 491958
2013 12 09.91136 03 32 21.37 +12 45 50.8 21.5   J43 – Oukaimeden Observatory, Marrakech MPS 491958
2013 12 09.92155 03 32 20.95 +12 45 48.8 20.4   J43 – Oukaimeden Observatory, Marrakech MPS 491958
2013 12 09.93171 03 32 20.51 +12 45 47.3 21.0   J43 – Oukaimeden Observatory, Marrakech MPS 491958
2014 01 28.17040 03 28 05.22 +13 12 06.7 21.2 V G96 – Mt. Lemmon Survey MPS 500110
2014 01 28.17497 03 28 05.32 +13 12 07.7 20.4 V G96 – Mt. Lemmon Survey MPS 500110
2014 01 28.17952 03 28 05.50 +13 12 09.0 20.7 V G96 – Mt. Lemmon Survey MPS 500110
2014 01 28.18408 03 28 05.57 +13 12 09.3 21.5 V G96 – Mt. Lemmon Survey MPS 500110
2015 01 18.47675 10 44 18.043 +02 22 48.60 21.5 w F51 – Pan-STARRS 1, Haleakala MPS 567107
2015 01 18.48965 10 44 17.754 +02 22 49.76 21.5 w F51 – Pan-STARRS 1, Haleakala MPS 567107
2015 01 18.51555 10 44 17.224 +02 22 52.25 21.2 w F51 – Pan-STARRS 1, Haleakala MPS 567107
